STARLINK-32568 (62128 NORAD) Tracking and Keplerian Element Data

This shows tracking and keplerian element data for the satellite.

Feedback or suggestion? Click here.




ElementValue
Catalog62128
NameSTARLINK-32568
Epoch Orbit1147
Epoch Day34.83759032
Epoch Year2025
RAAN230.0779
Inclination42.998
Eccentricity0.0001739
Argument of Perigee275.5611
Mean Anonmoly84.5047
Mean Motion15.40678862
Decay Rate-6.667E-05
L11 62128U 24222Q 25034.83759032 -.00006667 00000+0 -15257-3 0 9991
L22 62128 42.9980 230.0779 0001739 275.5611 84.5047 15.40678862 11476



Live tracking and technical data element details for STARLINK-32568 (NORAD 62128). STARLINK-32568 can be tracked NOW for your location showing map with azimuth and elevation plus other details from your city location.







IsCatalogInMostPopularTable: catalog: 62128, numindb: 13
Update: records affected: 1



GetName: 62128 STARLINK-32568

Hit Count: updated at: Sat, 24 May 2025 16:07:59 GMT